[[{"header":{"parameterUnit":"m.s-1","parameterCategory":1,"la1":30.2991,"la2":30.254,"lo1":-89.0895,"lo2":-89.0444,"dx":0.0017,"dy":0.0017,"nx":28,"ny":28,"refTime":"2023-01-27T15:00:00:Z","depth":0,"parameterNumber":2,"parameterNumberName":"U-component_of_WINDS"},"data":[0,0,0,0,0,0,0,0,0,0,0,0,0,0,0,0,0,0,0,0,0,0,0,0,0,0,0,0,0,0,0,0,0,0,0,0,0,0,0,0,0,0,0,0,0,0,0,0,0,0,0,0,0,0,0,0,0,0,-2.6489,-2.6489,0,-2.6478,-2.6478,-2.6478,-2.6377,-2.6374,-2.6372,-2.6369,-2.6361,-2.6363,-2.6365,0,0,0,0,0,0,0,0,0,0,0,0,0,-2.6427,-2.6429,-2.6489,-2.6489,-2.6489,-2.6478,-2.6478,-2.6477,-2.6377,-2.6374,-2.6371,-2.6368,-2.636,-2.6363,-2.6365,0,0,0,0,0,0,0,0,0,0,0,0,0,-2.6439,-2.6429,-2.6489,-2.6437,-2.6432,-2.6478,-2.6478,-2.6477,-2.6378,-2.6374,-2.637,-2.6367,-2.636,-2.6363,-2.6366,-2.6461,0,0,-2.6375,-2.6377,0,0,0,0,0,0,0,0,-2.6438,-2.6441,-2.6445,-2.6441,-2.6436,-2.6425,-2.6453,-2.6472,-2.6379,-2.6399,-2.6369,-2.6365,-2.6386,-2.6386,-2.6393,-2.646,-2.646,-2.6376,-2.6378,-2.6379,-2.638,0,0,0,0,0,0,0,-2.6438,-2.6441,-2.6484,-2.6445,-2.6439,-2.6416,-2.6413,-2.6456,-2.6414,-2.6397,-2.6389,-2.6389,-2.6382,-2.639,-2.6392,-2.646,-2.6376,-2.6379,-2.638,-2.6382,-2.6608,-2.6612,0,0,0,0,0,0,-2.6443,-2.6441,-2.6485,-2.6484,-2.6428,-2.642,-2.6417,-2.6432,-2.6413,-2.6406,-2.6393,-2.6385,-2.6386,-2.6388,-2.6391,-2.6502,-2.6379,-2.6382,-2.6384,-2.6604,-2.6609,-2.6613,0,0,0,0,0,0,-2.6443,-2.6448,-2.6485,-2.6461,-2.6463,-2.6425,-2.6443,-2.6434,-2.6441,-2.6409,-2.6402,-2.6408,-2.6383,-2.6387,-2.6444,-2.6501,-2.6383,-2.6386,-2.6599,-2.6605,-2.6611,-2.6725,0,0,0,0,0,0,-2.6441,-2.6449,-2.6483,-2.6462,-2.6465,-2.6538,-2.6446,-2.6436,-2.6447,-2.6436,-2.6422,-2.6416,-2.6381,-2.644,-2.6448,-2.6503,-2.6389,-2.6594,-2.6602,-2.6609,-2.6716,-2.6735,-2.675,0,0,0,0,0,-2.6439,-2.6516,-2.6485,-2.6491,-2.6507,-2.6541,-2.6543,-2.65,-2.6451,-2.6487,-2.6467,-2.6416,-2.6493,-2.6447,-2.6455,-2.6512,-2.659,-2.6599,-2.6608,-2.6709,-2.6731,-2.675,0,0,0,0,0,0,-2.6545,-2.6512,-2.6478,-2.655,-2.6549,-2.6524,-2.6567,-2.6525,-2.6539,-2.6529,-2.6476,-2.6474,-2.654,-2.6531,-2.6481,-2.6604,-2.6533,-2.6544,-2.6607,-2.6628,-2.6644,-2.6645,-2.6391,0,0,0,0,0,-2.6576,-2.6606,-2.6576,-2.6642,-2.6644,-2.6606,-2.6619,-2.6586,-2.6584,-2.6583,-2.6567,-2.6568,-2.6592,-2.6609,-2.663,-2.6715,-2.6711,-2.6758,-2.6775,-2.6789,-2.6799,-2.6846,-2.6867,-2.6643,-2.6643,-2.6643,0,0,-2.6642,-2.6628,-2.6649,-2.6663,-2.6659,-2.6692,-2.6606,-2.6644,-2.6668,-2.6589,-2.6643,-2.6632,-2.6629,-2.6702,-2.6733,-2.6696,-2.686,-2.6801,-2.6812,-2.6815,-2.6857,-2.6879,-2.6897,-2.6649,-2.6648,-2.6647,0,0,-2.6778,-2.677,-2.6825,-2.6823,-2.6817,-2.6792,-2.6806,-2.6788,-2.6777,-2.683,-2.6772,-2.6801,-2.6844,-2.6845,-2.6851,-2.6991,-2.6946,-2.6999,-2.7088,-2.7134,-2.7151,-2.7167,-2.7218,-2.7237,-2.7009,-2.701,-2.701,0,-2.6861,-2.6907,-2.6859,-2.6901,-2.691,-2.684,-2.6896,-2.6897,-2.6899,-2.6907,-2.6866,-2.692,-2.6913,-2.6986,-2.702,-2.7027,-2.7042,-2.7,-2.7152,-2.7167,-2.7181,-2.723,-2.7249,-2.7016,-2.7016,-2.7015,-2.7014,0,-2.7009,-2.7042,-2.7088,-2.7092,-2.7105,-2.7155,-2.7116,-2.7136,-2.7103,-2.7083,-2.7139,-2.7129,-2.7147,-2.7162,-2.713,-2.7231,-2.7209,-2.7161,-2.7089,-2.721,-2.7255,-2.7273,-2.7026,-2.7023,-2.7022,-2.702,0,0,-2.721,-2.7188,-2.7206,-2.7208,-2.7198,-2.7223,-2.7271,-2.7288,-2.7307,-2.7311,-2.7351,-2.739,-2.7346,-2.7353,-2.7321,-2.7361,-2.7475,-2.7309,-2.7308,-2.7341,-2.7589,-2.7625,-2.7648,-2.7445,-2.7448,-2.7451,-2.7589,0,-2.7343,-2.7421,-2.7381,-2.7465,-2.7496,-2.7431,-2.7472,-2.7472,-2.7455,-2.748,-2.7462,-2.7491,-2.743,-2.7434,-2.7471,-2.7454,-2.7524,-2.7443,-2.7483,-2.7485,-2.7487,-2.7671,-2.7709,-2.784,-2.7606,-2.7609,-2.7611,0,-2.7507,-2.7519,-2.7606,-2.7592,-2.7604,-2.7642,-2.7656,-2.768,-2.7679,-2.7664,-2.7674,-2.7632,-2.768,-2.7609,-2.7674,-2.762,-2.7634,-2.7628,-2.7633,-2.7635,-2.7556,-2.768,-2.788,-2.7901,-2.7638,-2.7636,-2.7634,0,-2.7647,-2.7684,-2.7742,-2.7745,-2.773,-2.7759,-2.7754,-2.7749,-2.7763,-2.7776,-2.7785,-2.7803,-2.7814,-2.783,-2.7796,-2.7746,-2.7867,-2.7792,-2.7858,-2.7859,-2.7886,-2.7885,-2.8093,-2.7894,-2.7894,-2.7894,-2.7893,0,-2.7799,-2.7855,-2.7805,-2.784,-2.7903,-2.7857,-2.792,-2.7908,-2.7905,-2.7939,-2.7884,-2.7917,-2.7869,-2.7898,-2.7872,-2.7932,-2.7936,-2.7927,-2.792,-2.7932,-2.7934,-2.7941,-2.7932,-2.7899,-2.7898,-2.7897,-2.7896,0,-2.7965,-2.7933,-2.7992,-2.7974,-2.7971,-2.8018,-2.8002,-2.8035,-2.8015,-2.8059,-2.8066,-2.8035,-2.8067,-2.8034,-2.8064,-2.8046,-2.8127,-2.8106,-2.8127,-2.8122,-2.8189,-2.8184,-2.841,-2.8439,-2.8221,-2.8223,-2.8225,0,-2.8065,-2.8107,-2.8093,-2.8111,-2.811,-2.814,-2.8154,-2.8112,-2.8129,-2.8132,-2.8166,-2.8193,-2.8212,-2.8266,-2.8247,-2.827,-2.8249,-2.8327,-2.8252,-2.8265,-2.8252,-2.825,-2.8255,-2.8342,-2.8345,-2.8347,-2.8349,0,-2.8245,-2.8228,-2.825,-2.8268,-2.8286,-2.8298,-2.8305,-2.8324,-2.828,-2.8303,-2.8334,-2.8349,-2.838,-2.8408,-2.8425,-2.8422,-2.838,-2.8373,-2.8389,-2.8403,-2.8415,-2.8411,-2.817,-2.8368,-2.8366,-2.8364,-2.8363,-2.8363,-2.8382,-2.8417,-2.8414,-2.8441,-2.8442,-2.8451,-2.8482,-2.8466,-2.8491,-2.8513,-2.8486,-2.8526,-2.8526,-2.8545,-2.8547,-2.8579,-2.8546,-2.857,-2.8576,-2.8583,-2.8593,-2.8409,-2.8582,-2.8581,-2.8581,-2.858,-2.858,0,-2.8561,-2.8556,-2.8581,-2.8594,-2.8616,-2.8573,-2.858,-2.8602,-2.8637,-2.8641,-2.8661,-2.8699,-2.8726,-2.871,-2.8735,-2.8763,-2.8745,-2.8771,-2.8769,-2.877,-2.862,-2.8604,-2.8786,-2.8786,-2.8786,-2.8786,-2.8786,-2.8786,-2.8656,-2.8714,-2.8697,-2.8756,-2.8751,-2.8789,-2.8797,-2.8806,-2.8808,-2.8853,-2.8875,-2.8865,-2.8861,-2.8885,-2.891,-2.8904,-2.8916,-2.8951,-2.8939,-2.88,-2.878,-2.876,-2.8745,-2.8953,-2.8954,-2.9085,-2.9086,-2.9087]},{"header":{"parameterUnit":"m.s-1","parameterCategory":1,"la1":30.2991,"la2":30.254,"lo1":-89.0895,"lo2":-89.0444,"dx":0.0017,"dy":0.0017,"nx":28,"ny":28,"refTime":"2023-01-27T15:00:00:Z","depth":0,"parameterNumber":3,"parameterNumberName":"V-component_of_WINDS"},"data":[0,0,0,0,0,0,0,0,0,0,0,0,0,0,0,0,0,0,0,0,0,0,0,0,0,0,0,0,0,0,0,0,0,0,0,0,0,0,0,0,0,0,0,0,0,0,0,0,0,0,0,0,0,0,0,0,0,0,0.2357,0.2357,0,0.2339,0.2339,0.2339,0.2375,0.2376,0.2378,0.2379,0.2356,0.2354,0.2353,0,0,0,0,0,0,0,0,0,0,0,0,0,0.2421,0.242,0.2357,0.2357,0.2357,0.2339,0.2339,0.2339,0.2375,0.2376,0.2378,0.2379,0.2356,0.2354,0.2352,0,0,0,0,0,0,0,0,0,0,0,0,0,0.2397,0.2419,0.2357,0.2373,0.2374,0.2339,0.2339,0.2338,0.2375,0.2376,0.2378,0.238,0.2357,0.2355,0.2352,0.23,0,0,0.2344,0.2343,0,0,0,0,0,0,0,0,0.2398,0.2395,0.2371,0.2372,0.2373,0.2361,0.2353,0.2325,0.2374,0.2374,0.2379,0.2381,0.2356,0.2354,0.2346,0.2299,0.2298,0.2344,0.2342,0.2341,0.234,0,0,0,0,0,0,0,0.24,0.2396,0.235,0.237,0.2372,0.238,0.2379,0.2348,0.2355,0.2374,0.2377,0.2375,0.2357,0.2348,0.2346,0.2297,0.2344,0.2342,0.234,0.2339,0.2206,0.2204,0,0,0,0,0,0,0.24,0.2397,0.2351,0.2349,0.2391,0.2377,0.2376,0.2363,0.2356,0.2356,0.2373,0.2376,0.2352,0.2349,0.2345,0.2283,0.2341,0.2339,0.2337,0.2208,0.2206,0.2204,0,0,0,0,0,0,0.2401,0.2396,0.2351,0.2374,0.2369,0.2374,0.236,0.2362,0.2354,0.2355,0.2356,0.2363,0.2353,0.2349,0.2311,0.2283,0.2338,0.2335,0.2211,0.2207,0.2205,0.2158,0,0,0,0,0,0,0.2403,0.2396,0.2377,0.2373,0.2368,0.2318,0.2358,0.236,0.2349,0.2353,0.2346,0.2346,0.2354,0.2315,0.2308,0.228,0.2333,0.2213,0.2209,0.2206,0.2162,0.2154,0.2147,0,0,0,0,0,0.2405,0.2363,0.2375,0.237,0.2344,0.2317,0.2313,0.2325,0.2347,0.2327,0.2328,0.2346,0.2287,0.2311,0.2304,0.2274,0.2215,0.221,0.2206,0.2166,0.2156,0.2147,0,0,0,0,0,0,0.2362,0.2363,0.2376,0.2333,0.2324,0.2323,0.2298,0.2314,0.2298,0.2302,0.2316,0.2314,0.2273,0.227,0.2296,0.2223,0.2255,0.2249,0.2226,0.2217,0.221,0.221,0.2331,0,0,0,0,0,0.2347,0.2326,0.2328,0.2289,0.2285,0.2292,0.2281,0.2291,0.2282,0.2278,0.2276,0.2266,0.2246,0.2231,0.2212,0.2163,0.2161,0.2139,0.2132,0.2125,0.2119,0.2093,0.2083,0.2189,0.2189,0.2189,0,0,0.2316,0.2315,0.23,0.2281,0.2275,0.2252,0.2289,0.2263,0.2245,0.2274,0.2238,0.2237,0.2226,0.2183,0.2163,0.2179,0.209,0.212,0.2115,0.2112,0.2087,0.2077,0.2068,0.2186,0.2187,0.2187,0,0,0.2249,0.2246,0.2213,0.2207,0.22,0.2205,0.2197,0.2194,0.2194,0.2159,0.218,0.2159,0.2124,0.2115,0.2106,0.2037,0.2053,0.2031,0.199,0.1964,0.1955,0.1948,0.1922,0.1913,0.2025,0.2025,0.2025,0,0.2211,0.2178,0.2194,0.2166,0.2157,0.2184,0.215,0.2144,0.2129,0.2121,0.214,0.2096,0.2091,0.2045,0.2029,0.2021,0.2011,0.2031,0.1955,0.1948,0.1941,0.1917,0.1907,0.2022,0.2022,0.2023,0.2023,0,0.2132,0.2108,0.2083,0.207,0.2058,0.2027,0.2037,0.2023,0.2035,0.2038,0.2002,0.1997,0.1978,0.1968,0.1978,0.1924,0.1933,0.1953,0.1985,0.1928,0.1905,0.1896,0.2018,0.2019,0.202,0.2021,0,0,0.2034,0.2031,0.2021,0.2016,0.201,0.1992,0.1963,0.1945,0.1932,0.1922,0.1897,0.1867,0.1886,0.1876,0.1885,0.1863,0.1807,0.1885,0.1885,0.187,0.1746,0.1729,0.1718,0.1819,0.1817,0.1815,0.1746,0,0.1966,0.1916,0.193,0.188,0.1859,0.1885,0.186,0.1853,0.1855,0.1837,0.1839,0.1817,0.1844,0.1838,0.1817,0.1818,0.1782,0.1824,0.1794,0.1792,0.1794,0.1707,0.1689,0.1624,0.1737,0.1736,0.1735,0,0.1879,0.1867,0.1815,0.1814,0.1805,0.1782,0.1767,0.175,0.1742,0.1746,0.1735,0.175,0.1721,0.1754,0.1713,0.1741,0.173,0.1728,0.1726,0.1722,0.1759,0.1699,0.1604,0.1593,0.1721,0.1722,0.1723,0,0.1811,0.1782,0.1748,0.1742,0.174,0.1723,0.1721,0.1716,0.1704,0.1691,0.1684,0.1667,0.1657,0.1644,0.1653,0.1677,0.161,0.1644,0.1611,0.161,0.1594,0.1594,0.1494,0.1589,0.1589,0.159,0.159,0,0.1733,0.17,0.1717,0.1696,0.1659,0.1676,0.1639,0.164,0.1636,0.1614,0.1636,0.1615,0.163,0.1609,0.1617,0.1581,0.1577,0.1578,0.158,0.1575,0.1574,0.1566,0.157,0.1587,0.1588,0.1588,0.1589,0,0.165,0.1661,0.1624,0.1626,0.1625,0.1598,0.1599,0.1579,0.1584,0.1556,0.1551,0.1558,0.1536,0.1545,0.1521,0.1526,0.148,0.1488,0.1482,0.1484,0.1449,0.1452,0.1338,0.1324,0.143,0.1429,0.1428,0,0.1598,0.1574,0.1573,0.1561,0.1558,0.1538,0.1527,0.1542,0.153,0.152,0.1501,0.1481,0.1466,0.1429,0.1431,0.1413,0.142,0.1382,0.1418,0.1413,0.1418,0.1419,0.1416,0.1374,0.1373,0.1372,0.1371,0,0.1505,0.1512,0.1496,0.1482,0.1469,0.1458,0.1449,0.1438,0.1453,0.1438,0.1416,0.1404,0.1381,0.136,0.1344,0.1341,0.1358,0.136,0.1351,0.1345,0.1342,0.1342,0.1461,0.1362,0.1363,0.1364,0.1364,0.1365,0.1435,0.1415,0.1411,0.1393,0.1388,0.138,0.1361,0.1364,0.1347,0.133,0.134,0.1314,0.1308,0.1289,0.1284,0.1263,0.1278,0.1265,0.1261,0.1258,0.1253,0.1347,0.126,0.1261,0.1261,0.1261,0.1261,0,0.1342,0.1342,0.1325,0.1312,0.1298,0.1318,0.1309,0.1295,0.1272,0.1266,0.1251,0.1226,0.1207,0.1208,0.119,0.1173,0.1181,0.1168,0.1168,0.1167,0.1241,0.125,0.1162,0.1162,0.1162,0.1162,0.1162,0.1162,0.1292,0.1258,0.1264,0.1228,0.1228,0.1204,0.1197,0.1189,0.1184,0.1156,0.114,0.1143,0.1139,0.1121,0.1104,0.1105,0.1096,0.108,0.1084,0.1152,0.1162,0.1171,0.118,0.1079,0.1079,0.1012,0.1011,0.101]}]]